Time,TemperatureF,DewpointF,PressureIn,WindDirection,WindDirectionDegrees,WindSpeedMPH,WindSpeedGustMPH,Humidity,HourlyPrecipIn,Conditions,Clouds,dailyrainin,SoftwareType,DateUTC
2013-06-18 00:08:00,56.9,51.0,30.01,NW,324,8.0,-999.0,80,-99.99,,,0.00,weatherlink.com 1.10,2013-06-18 07:08:00,
2013-06-18 00:23:00,56.1,50.0,30.01,WSW,248,0.0,-999.0,80,-99.99,,,0.00,weatherlink.com 1.10,2013-06-18 07:23:00,
2013-06-18 00:38:00,55.0,50.0,30.01,WSW,249,0.0,-999.0,83,-99.99,,,0.00,weatherlink.com 1.10,2013-06-18 07:38:00,
2013-06-18 00:53:00,54.7,50.0,30.01,SSW,213,0.0,-999.0,84,-99.99,,,0.00,weatherlink.com 1.10,2013-06-18 07:53:00,
2013-06-18 01:08:00,54.6,50.0,30.01,NNW,330,2.0,-999.0,85,-99.99,,,0.00,weatherlink.com 1.10,2013-06-18 08:08:00,
2013-06-18 01:23:00,54.6,50.0,30.01,NW,313,0.0,-999.0,85,-99.99,,,0.00,weatherlink.com 1.10,2013-06-18 08:23:00,
2013-06-18 01:38:00,55.4,50.0,30.01,North,349,7.0,-999.0,82,-99.99,,,0.00,weatherlink.com 1.10,2013-06-18 08:38:00,
2013-06-18 01:53:00,55.7,50.0,30.00,NW,322,6.0,-999.0,81,-99.99,,,0.00,weatherlink.com 1.10,2013-06-18 08:53:00,
2013-06-18 02:08:00,55.7,50.0,30.00,WNW,283,10.0,-999.0,80,-99.99,,,0.00,weatherlink.com 1.10,2013-06-18 09:08:00,
2013-06-18 02:23:00,55.4,49.0,30.00,NW,318,1.0,-999.0,80,-99.99,,,0.00,weatherlink.com 1.10,2013-06-18 09:23:00,
2013-06-18 02:38:00,55.1,49.0,30.00,WNW,296,5.0,-999.0,81,-99.99,,,0.00,weatherlink.com 1.10,2013-06-18 09:38:00,
2013-06-18 02:53:00,54.8,49.0,29.99,NNW,334,15.0,-999.0,81,-99.99,,,0.00,weatherlink.com 1.10,2013-06-18 09:53:00,
2013-06-18 03:08:00,54.9,49.0,29.99,NNE,18,1.0,-999.0,79,-99.99,,,0.00,weatherlink.com 1.10,2013-06-18 10:08:00,
2013-06-18 03:23:00,55.1,48.0,29.99,NNE,14,0.0,-999.0,78,-99.99,,,0.00,weatherlink.com 1.10,2013-06-18 10:23:00,
2013-06-18 03:38:00,55.0,48.0,30.00,NW,304,2.0,-999.0,78,-99.99,,,0.00,weatherlink.com 1.10,2013-06-18 10:38:00,
2013-06-18 03:52:00,54.8,48.0,29.99,WNW,288,5.0,-999.0,77,-99.99,,,0.00,weatherlink.com 1.10,2013-06-18 10:52:00,
2013-06-18 04:08:00,55.3,47.0,29.99,NNW,327,9.0,-999.0,74,-99.99,,,0.00,weatherlink.com 1.10,2013-06-18 11:08:00,
2013-06-18 04:23:00,55.7,47.0,29.99,NE,42,4.0,-999.0,72,-99.99,,,0.00,weatherlink.com 1.10,2013-06-18 11:23:00,
2013-06-18 04:38:00,55.3,47.0,29.99,NW,321,10.0,-999.0,74,-99.99,,,0.00,weatherlink.com 1.10,2013-06-18 11:38:00,
2013-06-18 04:53:00,55.1,47.0,30.00,West,280,6.0,-999.0,75,-99.99,,,0.00,weatherlink.com 1.10,2013-06-18 11:53:00,
2013-06-18 05:08:00,54.8,47.0,29.99,West,272,5.0,-999.0,76,-99.99,,,0.00,weatherlink.com 1.10,2013-06-18 12:08:00,
2013-06-18 05:23:00,54.7,48.0,29.99,West,281,11.0,-999.0,77,-99.99,,,0.00,weatherlink.com 1.10,2013-06-18 12:23:00,
2013-06-18 05:38:00,54.7,47.0,30.00,WNW,303,5.0,-999.0,76,-99.99,,,0.00,weatherlink.com 1.10,2013-06-18 12:38:00,
2013-06-18 05:53:00,55.1,47.0,30.00,WNW,290,4.0,-999.0,74,-99.99,,,0.00,weatherlink.com 1.10,2013-06-18 12:53:00,
2013-06-18 06:08:00,54.9,47.0,30.00,North,350,9.0,-999.0,75,-99.99,,,0.00,weatherlink.com 1.10,2013-06-18 13:08:00,
2013-06-18 06:23:00,55.1,47.0,30.00,NNW,329,11.0,-999.0,74,-99.99,,,0.00,weatherlink.com 1.10,2013-06-18 13:23:00,
2013-06-18 06:38:00,55.8,47.0,30.00,WNW,292,16.0,-999.0,71,-99.99,,,0.00,weatherlink.com 1.10,2013-06-18 13:38:00,
2013-06-18 06:53:00,56.4,46.0,30.00,NW,306,13.0,-999.0,69,-99.99,,,0.00,weatherlink.com 1.10,2013-06-18 13:53:00,
2013-06-18 07:08:00,56.9,46.0,30.00,West,263,2.0,-999.0,68,-99.99,,,0.00,weatherlink.com 1.10,2013-06-18 14:08:00,
2013-06-18 07:23:00,57.2,47.0,30.01,NW,315,5.0,-999.0,68,-99.99,,,0.00,weatherlink.com 1.10,2013-06-18 14:23:00,
2013-06-18 07:38:00,57.3,46.0,30.01,NNW,331,10.0,-999.0,67,-99.99,,,0.00,weatherlink.com 1.10,2013-06-18 14:38:00,
2013-06-18 07:52:00,57.9,47.0,30.01,NW,313,5.0,-999.0,67,-99.99,,,0.00,weatherlink.com 1.10,2013-06-18 14:52:00,
2013-06-18 08:08:00,58.1,47.0,30.02,SW,227,5.0,-999.0,67,-99.99,,,0.00,weatherlink.com 1.10,2013-06-18 15:08:00,
2013-06-18 08:23:00,58.8,47.0,30.01,NNW,342,6.0,-999.0,65,-99.99,,,0.00,weatherlink.com 1.10,2013-06-18 15:23:00,
2013-06-18 08:38:00,59.6,47.0,30.02,NNW,348,12.0,-999.0,64,-99.99,,,0.00,weatherlink.com 1.10,2013-06-18 15:38:00,
2013-06-18 08:53:00,59.8,47.0,30.01,NNW,331,7.0,-999.0,63,-99.99,,,0.00,weatherlink.com 1.10,2013-06-18 15:53:00,
2013-06-18 09:08:00,60.4,47.0,30.02,WNW,299,6.0,-999.0,61,-99.99,,,0.00,weatherlink.com 1.10,2013-06-18 16:08:00,
2013-06-18 09:23:00,60.7,47.0,30.02,West,277,5.0,-999.0,61,-99.99,,,0.00,weatherlink.com 1.10,2013-06-18 16:23:00,
2013-06-18 09:38:00,61.3,47.0,30.01,ENE,68,4.0,-999.0,60,-99.99,,,0.00,weatherlink.com 1.10,2013-06-18 16:38:00,
2013-06-18 09:53:00,62.2,47.0,30.01,WSW,243,12.0,-999.0,57,-99.99,,,0.00,weatherlink.com 1.10,2013-06-18 16:53:00,
2013-06-18 10:08:00,62.4,46.0,30.01,NW,321,14.0,-999.0,56,-99.99,,,0.00,weatherlink.com 1.10,2013-06-18 17:08:00,
2013-06-18 10:23:00,63.0,46.0,30.01,NW,325,4.0,-999.0,55,-99.99,,,0.00,weatherlink.com 1.10,2013-06-18 17:23:00,
2013-06-18 10:38:00,62.6,46.0,30.01,NW,317,3.0,-999.0,56,-99.99,,,0.00,weatherlink.com 1.10,2013-06-18 17:38:00,
2013-06-18 10:53:00,63.3,46.0,30.01,NW,307,11.0,-999.0,53,-99.99,,,0.00,weatherlink.com 1.10,2013-06-18 17:53:00,
2013-06-18 11:08:00,64.0,45.0,30.01,WNW,298,10.0,-999.0,51,-99.99,,,0.00,weatherlink.com 1.10,2013-06-18 18:08:00,
2013-06-18 11:23:00,64.1,45.0,30.01,WNW,290,8.0,-999.0,50,-99.99,,,0.00,weatherlink.com 1.10,2013-06-18 18:23:00,
2013-06-18 11:38:00,64.7,45.0,30.01,NE,49,2.0,-999.0,50,-99.99,,,0.00,weatherlink.com 1.10,2013-06-18 18:38:00,
2013-06-18 11:52:00,64.7,45.0,30.01,NNW,336,12.0,-999.0,50,-99.99,,,0.00,weatherlink.com 1.10,2013-06-18 18:52:00,
2013-06-18 12:08:00,64.7,45.0,30.02,NNW,331,9.0,-999.0,50,-99.99,,,0.00,weatherlink.com 1.10,2013-06-18 19:08:00,
2013-06-18 12:23:00,63.9,45.0,30.01,WNW,288,14.0,-999.0,51,-99.99,,,0.00,weatherlink.com 1.10,2013-06-18 19:23:00,
2013-06-18 12:38:00,63.9,46.0,30.01,West,279,12.0,-999.0,52,-99.99,,,0.00,weatherlink.com 1.10,2013-06-18 19:38:00,
2013-06-18 12:53:00,63.8,46.0,30.01,NW,320,13.0,-999.0,52,-99.99,,,0.00,weatherlink.com 1.10,2013-06-18 19:53:00,
2013-06-18 13:23:00,63.5,45.0,30.01,NW,304,14.0,-999.0,52,-99.99,,,0.00,weatherlink.com 1.10,2013-06-18 20:23:00,
2013-06-18 13:38:00,64.0,46.0,30.01,NW,319,14.0,-999.0,53,-99.99,,,0.00,weatherlink.com 1.10,2013-06-18 20:38:00,
2013-06-18 13:53:00,64.5,46.0,30.00,WSW,256,9.0,-999.0,52,-99.99,,,0.00,weatherlink.com 1.10,2013-06-18 20:53:00,
2013-06-18 14:07:00,65.1,46.0,30.01,NW,325,19.0,-999.0,51,-99.99,,,0.00,weatherlink.com 1.10,2013-06-18 21:07:00,
2013-06-18 14:22:00,64.5,46.0,30.01,NW,320,15.0,-999.0,52,-99.99,,,0.00,weatherlink.com 1.10,2013-06-18 21:22:00,
2013-06-18 14:37:00,64.3,46.0,30.00,NW,324,14.0,-999.0,51,-99.99,,,0.00,weatherlink.com 1.10,2013-06-18 21:37:00,
2013-06-18 14:52:00,64.1,46.0,30.00,NW,311,18.0,-999.0,52,-99.99,,,0.00,weatherlink.com 1.10,2013-06-18 21:52:00,
2013-06-18 15:07:00,64.6,46.0,29.99,WNW,303,19.0,-999.0,52,-99.99,,,0.00,weatherlink.com 1.10,2013-06-18 22:07:00,
2013-06-18 15:22:00,64.1,46.0,29.98,NW,306,21.0,-999.0,53,-99.99,,,0.00,weatherlink.com 1.10,2013-06-18 22:22:00,
2013-06-18 15:37:00,64.6,47.0,29.98,NW,311,14.0,-999.0,54,-99.99,,,0.00,weatherlink.com 1.10,2013-06-18 22:37:00,
2013-06-18 15:52:00,64.3,48.0,29.97,NW,307,19.0,-999.0,56,-99.99,,,0.00,weatherlink.com 1.10,2013-06-18 22:52:00,
2013-06-18 16:07:00,64.0,47.0,29.96,WNW,301,26.0,-999.0,54,-99.99,,,0.00,weatherlink.com 1.10,2013-06-18 23:07:00,
2013-06-18 16:22:00,64.6,47.0,29.96,WSW,252,15.0,-999.0,54,-99.99,,,0.00,weatherlink.com 1.10,2013-06-18 23:22:00,
2013-06-18 16:37:00,63.6,47.0,29.96,NNW,336,18.0,-999.0,56,-99.99,,,0.00,weatherlink.com 1.10,2013-06-18 23:37:00,
2013-06-18 16:52:00,63.3,48.0,29.96,NW,322,13.0,-999.0,57,-99.99,,,0.00,weatherlink.com 1.10,2013-06-18 23:52:00,
2013-06-18 17:08:00,63.4,47.0,29.96,NW,309,9.0,-999.0,56,-99.99,,,0.00,weatherlink.com 1.10,2013-06-19 00:08:00,
2013-06-18 17:23:00,63.0,48.0,29.95,NW,310,14.0,-999.0,59,-99.99,,,0.00,weatherlink.com 1.10,2013-06-19 00:23:00,
2013-06-18 17:38:00,61.3,48.0,29.95,NNW,348,7.0,-999.0,61,-99.99,,,0.00,weatherlink.com 1.10,2013-06-19 00:38:00,
2013-06-18 17:53:00,61.0,49.0,29.95,NW,315,16.0,-999.0,64,-99.99,,,0.00,weatherlink.com 1.10,2013-06-19 00:53:00,
2013-06-18 18:08:00,60.7,49.0,29.95,NW,322,23.0,-999.0,65,-99.99,,,0.00,weatherlink.com 1.10,2013-06-19 01:08:00,
2013-06-18 18:23:00,60.4,48.0,29.95,West,271,10.0,-999.0,65,-99.99,,,0.00,weatherlink.com 1.10,2013-06-19 01:23:00,
2013-06-18 18:38:00,60.2,49.0,29.94,WNW,289,23.0,-999.0,66,-99.99,,,0.00,weatherlink.com 1.10,2013-06-19 01:38:00,
2013-06-18 18:53:00,59.5,49.0,29.94,WNW,295,20.0,-999.0,68,-99.99,,,0.00,weatherlink.com 1.10,2013-06-19 01:53:00,
2013-06-18 19:08:00,59.0,48.0,29.95,NW,321,20.0,-999.0,68,-99.99,,,0.00,weatherlink.com 1.10,2013-06-19 02:08:00,
2013-06-18 19:23:00,59.0,47.0,29.95,WNW,294,23.0,-999.0,65,-99.99,,,0.00,weatherlink.com 1.10,2013-06-19 02:23:00,
2013-06-18 19:38:00,59.0,47.0,29.94,West,281,15.0,-999.0,64,-99.99,,,0.00,weatherlink.com 1.10,2013-06-19 02:38:00,
2013-06-18 19:52:00,58.3,46.0,29.95,North,355,15.0,-999.0,65,-99.99,,,0.00,weatherlink.com 1.10,2013-06-19 02:52:00,
2013-06-18 20:08:00,57.4,47.0,29.95,NW,321,19.0,-999.0,69,-99.99,,,0.00,weatherlink.com 1.10,2013-06-19 03:08:00,
2013-06-18 20:23:00,56.8,47.0,29.96,NW,314,21.0,-999.0,70,-99.99,,,0.00,weatherlink.com 1.10,2013-06-19 03:23:00,
2013-06-18 20:38:00,56.3,47.0,29.95,NNW,336,20.0,-999.0,72,-99.99,,,0.00,weatherlink.com 1.10,2013-06-19 03:38:00,
2013-06-18 20:53:00,56.2,47.0,29.95,WNW,296,21.0,-999.0,72,-99.99,,,0.00,weatherlink.com 1.10,2013-06-19 03:53:00,
2013-06-18 21:08:00,56.3,47.0,29.96,WNW,294,20.0,-999.0,72,-99.99,,,0.00,weatherlink.com 1.10,2013-06-19 04:08:00,
2013-06-18 21:23:00,56.2,47.0,29.96,WNW,300,14.0,-999.0,72,-99.99,,,0.00,weatherlink.com 1.10,2013-06-19 04:23:00,
2013-06-18 21:38:00,56.1,47.0,29.97,North,355,12.0,-999.0,72,-99.99,,,0.00,weatherlink.com 1.10,2013-06-19 04:38:00,
2013-06-18 21:53:00,55.6,47.0,29.98,NW,315,21.0,-999.0,74,-99.99,,,0.00,weatherlink.com 1.10,2013-06-19 04:53:00,
2013-06-18 22:08:00,55.1,48.0,29.98,West,279,25.0,-999.0,77,-99.99,,,0.00,weatherlink.com 1.10,2013-06-19 05:08:00,
2013-06-18 22:23:00,54.9,48.0,29.98,NW,323,13.0,-999.0,77,-99.99,,,0.00,weatherlink.com 1.10,2013-06-19 05:23:00,
2013-06-18 22:38:00,54.9,48.0,29.98,West,269,12.0,-999.0,77,-99.99,,,0.00,weatherlink.com 1.10,2013-06-19 05:38:00,
2013-06-18 22:53:00,55.1,48.0,29.98,NW,304,16.0,-999.0,76,-99.99,,,0.00,weatherlink.com 1.10,2013-06-19 05:53:00,
2013-06-18 23:08:00,54.7,48.0,29.98,WNW,299,27.0,-999.0,77,-99.99,,,0.00,weatherlink.com 1.10,2013-06-19 06:08:00,
2013-06-18 23:23:00,54.8,47.0,29.97,NW,315,26.0,-999.0,75,-99.99,,,0.00,weatherlink.com 1.10,2013-06-19 06:23:00,
2013-06-18 23:38:00,54.8,47.0,29.99,WNW,292,16.0,-999.0,75,-99.99,,,0.00,weatherlink.com 1.10,2013-06-19 06:38:00,
2013-06-18 23:52:00,55.2,46.0,29.98,NW,317,25.0,-999.0,72,-99.99,,,0.00,weatherlink.com 1.10,2013-06-19 06:52:00,